sat.trackr.live / text

‹ back to catalog

GAOFEN-9 05

NORAD 46232 · 2020-058A

PAYLOAD ACTIVE UNKNOWN

§ Identity

Operator
Country
PRC
Launch date
2020-08-23
Launch site
JSC
Launch vehicle
Mass (kg)
RCS (m²)

External: N2YO · Heavens-Above · Gunter

§ Orbital elements

Epoch: 2026-09-20T04:45:55.473408Z

Period
93.91 min
Inclination
97.2011°
Eccentricity
0.0009834
Mean motion
15.33327668 rev/d
Perigee alt
459.2 km
Apogee alt
472.6 km
Semi-major
6,844.0 km
B*
1.5337e-4
RAAN
301.0162°
Arg perigee
111.3799°
Mean anomaly
248.8494°
Rev number
33,816

§ Raw data

GAOFEN-9 051 46232U 20058A   26263.19855872  .00004869  00000+0  15337-3 0  99942 46232  97.2011 301.0162 0009834 111.3799 248.8494 15.33327668338161

JSON: /api/v1/satellites/46232 · /tle

For live sub-satellite position, see the globe view (requires WebGL).

§ Visibility from observer

Set your observer location to see the next 7 days of passes ≥ 10°. The values pass through the URL so the page stays shareable.

No JS? Fill the form by hand. The geolocation button needs JavaScript.